EEST,Max TemperatureF,Mean TemperatureF,Min TemperatureF,Max Dew PointF,MeanDew PointF,Min DewpointF,Max Humidity, Mean Humidity, Min Humidity, Max Sea Level PressureIn, Mean Sea Level PressureIn, Min Sea Level PressureIn, Max VisibilityMiles, Mean VisibilityMiles, Min VisibilityMiles, Max Wind SpeedMPH, Mean Wind SpeedMPH, Max Gust SpeedMPH,PrecipitationIn, CloudCover, Events, WindDirDegrees
2013-6-1,77,66,56,64,60,55,94,72,53,29.94,29.86,29.80,6,6,6,18,6,,0.00,6,,271
2013-6-2,84,74,64,66,61,48,94,66,29,29.86,29.79,29.71,6,6,6,23,8,34,0.00,5,Rain,188
2013-6-3,81,70,58,64,57,46,100,63,30,29.83,29.80,29.77,6,6,6,22,7,,0.00,,,279
2013-6-4,79,69,59,64,60,55,88,70,41,29.95,29.85,29.80,6,6,6,21,6,,0.00,1,,192
2013-6-5,77,67,57,64,60,55,100,73,53,30.02,29.99,29.95,6,6,6,14,5,,0.00,1,,210
2013-6-6,78,68,57,68,62,55,94,76,47,30.01,29.98,29.95,6,6,6,15,6,,0.00,1,,154
2013-6-7,82,72,61,66,60,55,94,68,44,30.01,29.94,29.86,6,6,6,14,5,,0.00,6,,102
2013-6-8,85,72,59,68,60,55,88,69,39,29.86,29.79,29.74,6,6,6,20,6,,0.00,6,Thunderstorm,22
2013-6-9,86,72,59,66,60,54,94,62,37,29.80,29.77,29.74,6,6,6,23,6,,0.00,2,,256
2013-6-10,89,78,66,64,59,54,83,57,29,29.83,29.80,29.77,6,6,6,18,8,,0.00,1,,149
2013-6-11,83,72,61,70,63,57,88,71,45,29.84,29.79,29.74,6,6,6,15,6,,0.00,1,,190
2013-6-12,80,70,60,68,63,59,94,75,51,29.74,29.71,29.68,6,6,6,14,5,,0.00,3,,195
2013-6-13,79,70,60,66,63,59,94,75,53,29.80,29.74,29.68,6,6,6,16,6,,0.00,2,,178
2013-6-14,79,70,60,66,62,59,94,74,53,29.86,29.82,29.80,6,6,6,16,6,,0.00,2,,212
2013-6-15,81,71,61,68,64,59,94,76,51,29.84,29.82,29.80,6,6,5,17,6,,0.00,1,,192
2013-6-16,90,78,67,68,62,55,94,59,29,29.82,29.79,29.74,6,6,6,17,8,26,0.00,1,,84
2013-6-17,98,84,69,68,58,53,78,41,15,29.82,29.77,29.71,12,6,6,20,10,,0.00,2,,12
2013-6-18,95,83,69,70,59,52,88,46,22,29.78,29.74,29.71,6,6,6,23,15,28,0.00,,,335
2013-6-19,97,82,68,68,58,50,88,45,17,29.78,29.73,29.68,6,6,6,15,9,,0.00,,,335
2013-6-20,97,80,63,72,64,52,88,65,23,29.78,29.75,29.71,6,6,6,14,6,,0.00,,,155
2013-6-21,93,80,66,72,64,57,83,62,31,29.78,29.76,29.71,6,6,6,12,6,,0.00,1,,178
2013-6-22,87,75,63,72,66,59,88,70,45,29.79,29.76,29.74,6,6,6,12,5,,0.00,,,203
2013-6-23,85,74,62,72,66,57,89,73,46,29.77,29.74,29.74,6,6,6,13,5,,0.00,,,185
2013-6-24,85,76,68,72,68,64,94,72,43,29.77,29.73,29.71,6,6,6,13,6,,0.00,1,,167
2013-6-25,86,76,67,72,68,61,94,74,35,29.77,29.73,29.71,6,6,6,13,5,23,0.00,1,,183
2013-6-26,86,78,69,73,70,68,94,77,51,29.81,29.77,29.71,6,6,6,14,4,,0.00,1,,203
2013-6-27,86,76,67,73,70,66,94,76,52,29.80,29.77,29.74,6,6,6,14,6,,0.00,1,,184
2013-6-28,87,78,69,73,69,66,89,71,55,29.77,29.73,29.68,6,6,6,18,6,,0.00,1,,178
2013-6-29,89,80,72,72,68,65,88,66,46,29.74,29.69,29.68,6,6,6,17,6,,0.00,1,,190
2013-6-30,84,75,66,68,65,61,88,67,44,29.77,29.73,29.71,6,6,6,18,7,,0.00,2,,264